sat.trackr.live / text

‹ back to catalog

TRANSPORTER-15 OBJECT DD

NORAD 66765 · 2025-276DD

PAYLOAD ACTIVE UNKNOWN

§ Identity

Operator
Country
TBD
Launch date
2025-11-28
Launch site
AFWTR
Launch vehicle
Mass (kg)
RCS (m²)

External: N2YO · Heavens-Above · Gunter

§ Orbital elements

Epoch: 2026-09-20T22:32:50.830944Z

Period
94.38 min
Inclination
97.4140°
Eccentricity
0.0000806
Mean motion
15.25748959 rev/d
Perigee alt
488.0 km
Apogee alt
489.1 km
Semi-major
6,866.7 km
B*
2.8728e-4
RAAN
337.3931°
Arg perigee
90.3566°
Mean anomaly
269.7765°
Rev number
4,506

§ Raw data

TRANSPORTER-15 OBJECT DD1 66765U 25276DD  26263.93947721  .00007260  00000+0  28728-3 0  99972 66765  97.4140 337.3931 0000806  90.3566 269.7765 15.25748959 45061

JSON: /api/v1/satellites/66765 · /tle

For live sub-satellite position, see the globe view (requires WebGL).

§ Visibility from observer

Set your observer location to see the next 7 days of passes ≥ 10°. The values pass through the URL so the page stays shareable.

No JS? Fill the form by hand. The geolocation button needs JavaScript.